TAM4603 SBIL-SBGR

Flight info

Callsign TAM4603
Flight time 1h 48m
Altitude 30000
Route DCT DENDE DCT POSMU DCT REDAD UZ21 VUNOX SANPA1A
Aircraft A320/M-SDE3FGHIRWY/LB1

Departure

Time 2026-04-20 15:03
Airport Bahia - Jorge Amado Airport (SBIL)

Arrival

Time 2026-04-20 16:52
Airport São Paulo/Guarulhos–Governor André Franco Montoro International Airport (SBGR)
Time Latitude Longitude Altitude Speed Heading
2026-04-20 14:55 -14.81441 -39.03165 20 ft 0 kts 314°
2026-04-20 14:59 -14.81442 -39.03164 19 ft 1 kts 314°
2026-04-20 14:59 -14.81460 -39.03148 20 ft 4 kts 327°
2026-04-20 14:59 -14.81480 -39.03134 18 ft 4 kts 290°
2026-04-20 14:59 -14.81481 -39.03128 18 ft 0 kts 269°
2026-04-20 15:01 -14.81482 -39.03149 18 ft 14 kts 267°
2026-04-20 15:01 -14.81523 -39.03237 18 ft 14 kts 195°
2026-04-20 15:01 -14.81590 -39.03302 18 ft 14 kts 257°
2026-04-20 15:01 -14.81596 -39.03416 19 ft 20 kts 268°
2026-04-20 15:02 -14.81599 -39.03589 21 ft 25 kts 269°
2026-04-20 15:02 -14.81602 -39.03775 21 ft 26 kts 269°
2026-04-20 15:02 -14.81605 -39.03960 22 ft 26 kts 273°
2026-04-20 15:02 -14.81613 -39.04039 24 ft 7 kts 151°
2026-04-20 15:03 -14.81610 -39.03923 22 ft 45 kts 88°
2026-04-20 15:03 -14.81593 -39.03298 18 ft 125 kts 88°
2026-04-20 15:03 -14.81584 -39.02198 195 ft 163 kts 91°
2026-04-20 15:03 -14.81555 -39.01134 1247 ft 145 kts 90°
2026-04-20 15:04 -14.81520 -39.00075 1736 ft 153 kts 92°
2026-04-20 15:04 -14.81848 -38.98979 1898 ft 171 kts 131°
2026-04-20 15:04 -14.82933 -38.98395 2090 ft 191 kts 178°
2026-04-20 15:04 -14.84239 -38.98870 2293 ft 216 kts 215°
2026-04-20 15:05 -14.85386 -38.99990 2520 ft 243 kts 226°
2026-04-20 15:05 -14.86522 -39.01383 2981 ft 261 kts 229°
2026-04-20 15:05 -14.87676 -39.02872 3760 ft 266 kts 230°
2026-04-20 15:05 -14.88840 -39.04368 4576 ft 269 kts 229°
2026-04-20 15:06 -14.90035 -39.05874 5374 ft 273 kts 229°
2026-04-20 15:06 -14.91259 -39.07386 6186 ft 275 kts 229°
2026-04-20 15:06 -14.92501 -39.08900 6973 ft 278 kts 228°
2026-04-20 15:06 -14.93770 -39.10428 7725 ft 281 kts 228°
2026-04-20 15:07 -14.95059 -39.11970 8434 ft 285 kts 228°
2026-04-20 15:07 -14.96353 -39.13511 9125 ft 289 kts 228°
2026-04-20 15:07 -14.97685 -39.15094 9825 ft 293 kts 228°
2026-04-20 15:07 -14.99045 -39.16709 10281 ft 306 kts 228°
2026-04-20 15:08 -15.00494 -39.18433 10438 ft 328 kts 229°
2026-04-20 15:08 -15.02018 -39.20248 10891 ft 338 kts 229°
2026-04-20 15:08 -15.03569 -39.22098 11511 ft 342 kts 229°
2026-04-20 15:08 -15.05137 -39.23967 12173 ft 345 kts 229°
2026-04-20 15:09 -15.06718 -39.25856 12797 ft 349 kts 229°
2026-04-20 15:09 -15.08316 -39.27763 13433 ft 352 kts 230°
2026-04-20 15:09 -15.09908 -39.29662 14050 ft 354 kts 230°
2026-04-20 15:09 -15.11530 -39.31600 14636 ft 358 kts 230°
2026-04-20 15:10 -15.13164 -39.33552 15239 ft 360 kts 230°
2026-04-20 15:10 -15.14813 -39.35526 15840 ft 363 kts 231°
2026-04-20 15:10 -15.16473 -39.37517 16418 ft 366 kts 231°
2026-04-20 15:10 -15.18147 -39.39527 16999 ft 368 kts 231°
2026-04-20 15:11 -15.19806 -39.41515 17575 ft 371 kts 231°
2026-04-20 15:11 -15.21500 -39.43544 18136 ft 373 kts 231°
2026-04-20 15:11 -15.23204 -39.45583 18668 ft 376 kts 231°
2026-04-20 15:11 -15.24920 -39.47637 19197 ft 378 kts 231°
2026-04-20 15:12 -15.26647 -39.49703 19700 ft 381 kts 231°
2026-04-20 15:12 -15.28409 -39.51774 20168 ft 384 kts 227°
2026-04-20 15:12 -15.30442 -39.53607 20668 ft 389 kts 220°
2026-04-20 15:12 -15.32568 -39.55352 21124 ft 391 kts 221°
2026-04-20 15:13 -15.34706 -39.57110 21593 ft 394 kts 221°
2026-04-20 15:13 -15.36855 -39.58876 22085 ft 395 kts 221°
2026-04-20 15:13 -15.38988 -39.60630 22506 ft 398 kts 221°
2026-04-20 15:13 -15.41160 -39.62421 22959 ft 400 kts 221°
2026-04-20 15:14 -15.43343 -39.64225 23394 ft 403 kts 221°
2026-04-20 15:14 -15.45539 -39.66040 23817 ft 405 kts 221°
2026-04-20 15:14 -15.47747 -39.67864 24202 ft 407 kts 221°
2026-04-20 15:14 -15.49965 -39.69698 24587 ft 409 kts 221°
2026-04-20 15:15 -15.52193 -39.71543 24974 ft 411 kts 221°
2026-04-20 15:15 -15.54431 -39.73396 25345 ft 413 kts 221°
2026-04-20 15:15 -15.56682 -39.75262 25713 ft 414 kts 221°
2026-04-20 15:15 -15.58944 -39.77134 26072 ft 416 kts 221°
2026-04-20 15:16 -15.61212 -39.79008 26417 ft 418 kts 221°
2026-04-20 15:16 -15.63493 -39.80891 26763 ft 419 kts 221°
2026-04-20 15:16 -15.65770 -39.82774 27079 ft 420 kts 221°
2026-04-20 15:16 -15.68035 -39.84649 27395 ft 422 kts 221°
2026-04-20 15:17 -15.70336 -39.86552 27698 ft 424 kts 221°
2026-04-20 15:17 -15.72648 -39.88461 27997 ft 426 kts 221°
2026-04-20 15:17 -15.74971 -39.90380 28320 ft 427 kts 221°
2026-04-20 15:17 -15.77301 -39.92307 28620 ft 428 kts 221°
2026-04-20 15:18 -15.79627 -39.94233 28912 ft 429 kts 221°
2026-04-20 15:18 -15.81970 -39.96173 29183 ft 431 kts 221°
2026-04-20 15:18 -15.84323 -39.98118 29466 ft 432 kts 221°
2026-04-20 15:18 -15.86676 -40.00067 29737 ft 433 kts 221°
2026-04-20 15:19 -15.89041 -40.02028 29937 ft 434 kts 221°
2026-04-20 15:19 -15.91355 -40.03948 29982 ft 423 kts 221°
2026-04-20 15:19 -15.93617 -40.05824 29988 ft 412 kts 221°
2026-04-20 15:20 -15.98055 -40.09516 29987 ft 407 kts 221°
2026-04-20 15:20 -16.02474 -40.13206 29987 ft 406 kts 221°
2026-04-20 15:21 -16.06890 -40.16876 29987 ft 406 kts 221°
2026-04-20 15:21 -16.11280 -40.20521 29988 ft 406 kts 221°
2026-04-20 15:22 -16.14985 -40.23598 29988 ft 406 kts 221°
2026-04-20 15:22 -16.19373 -40.27252 29987 ft 406 kts 221°
2026-04-20 15:23 -16.23777 -40.30929 29984 ft 406 kts 221°
2026-04-20 15:23 -16.28190 -40.34609 29985 ft 406 kts 221°
2026-04-20 15:24 -16.32598 -40.38284 29983 ft 406 kts 221°
2026-04-20 15:24 -16.37013 -40.41970 29988 ft 406 kts 221°
2026-04-20 15:25 -16.41405 -40.45636 29992 ft 406 kts 221°
2026-04-20 15:25 -16.45812 -40.49319 29993 ft 406 kts 221°
2026-04-20 15:26 -16.50222 -40.53010 29997 ft 406 kts 221°
2026-04-20 15:26 -16.54600 -40.56671 29998 ft 405 kts 221°
2026-04-20 15:27 -16.58997 -40.60353 29995 ft 405 kts 221°
2026-04-20 15:27 -16.63389 -40.64035 29995 ft 405 kts 221°
2026-04-20 15:28 -16.67781 -40.67714 29996 ft 404 kts 221°
2026-04-20 15:28 -16.72171 -40.71398 30003 ft 405 kts 221°
2026-04-20 15:29 -16.76566 -40.75088 30023 ft 405 kts 221°
2026-04-20 15:29 -16.80958 -40.78780 30014 ft 405 kts 221°
2026-04-20 15:30 -16.85341 -40.82464 30015 ft 405 kts 221°
2026-04-20 15:30 -16.89698 -40.86123 30007 ft 404 kts 221°
2026-04-20 15:31 -16.94086 -40.89817 30004 ft 404 kts 221°
2026-04-20 15:31 -16.98463 -40.93504 30018 ft 404 kts 221°
2026-04-20 15:32 -17.02854 -40.97195 30017 ft 405 kts 220°
2026-04-20 15:32 -17.07205 -41.00859 30016 ft 404 kts 220°
2026-04-20 15:33 -17.11589 -41.04557 30023 ft 404 kts 221°
2026-04-20 15:33 -17.15956 -41.08253 30007 ft 404 kts 220°
2026-04-20 15:34 -17.20328 -41.11952 30018 ft 404 kts 220°
2026-04-20 15:34 -17.24673 -41.15625 30016 ft 404 kts 220°
2026-04-20 15:35 -17.29055 -41.19325 30010 ft 404 kts 220°
2026-04-20 15:35 -17.33429 -41.23023 30014 ft 404 kts 220°
2026-04-20 15:36 -17.37811 -41.26731 30014 ft 405 kts 220°
2026-04-20 15:36 -17.42197 -41.30445 30021 ft 405 kts 220°
2026-04-20 15:37 -17.46557 -41.34138 30025 ft 405 kts 220°
2026-04-20 15:37 -17.50925 -41.37855 30029 ft 404 kts 220°
2026-04-20 15:38 -17.55303 -41.41577 30013 ft 404 kts 220°
2026-04-20 15:38 -17.59666 -41.45282 30017 ft 404 kts 220°
2026-04-20 15:39 -17.64048 -41.48999 30027 ft 404 kts 220°
2026-04-20 15:39 -17.68402 -41.52689 30029 ft 405 kts 220°
2026-04-20 15:40 -17.72781 -41.56414 30017 ft 405 kts 220°
2026-04-20 15:40 -17.77166 -41.60160 30033 ft 406 kts 220°
2026-04-20 15:41 -17.81545 -41.63905 30031 ft 406 kts 220°
2026-04-20 15:41 -17.85910 -41.67625 30032 ft 406 kts 220°
2026-04-20 15:42 -17.90308 -41.71370 30039 ft 407 kts 220°
2026-04-20 15:42 -17.94709 -41.75115 30032 ft 407 kts 219°
2026-04-20 15:43 -17.99104 -41.78873 30037 ft 407 kts 220°
2026-04-20 15:43 -18.03493 -41.82639 30041 ft 407 kts 220°
2026-04-20 15:44 -18.07893 -41.86399 30048 ft 407 kts 219°
2026-04-20 15:44 -18.12275 -41.90130 30054 ft 408 kts 219°
2026-04-20 15:45 -18.16682 -41.93913 30045 ft 406 kts 220°
2026-04-20 15:45 -18.21054 -41.97668 30044 ft 406 kts 219°
2026-04-20 15:46 -18.25434 -42.01418 30041 ft 405 kts 219°
2026-04-20 15:46 -18.29782 -42.05140 30034 ft 406 kts 219°
2026-04-20 15:47 -18.34155 -42.08894 30033 ft 405 kts 219°
2026-04-20 15:47 -18.38515 -42.12657 30037 ft 405 kts 220°
2026-04-20 15:48 -18.42883 -42.16423 30031 ft 405 kts 219°
2026-04-20 15:48 -18.47252 -42.20181 30038 ft 406 kts 219°
2026-04-20 15:49 -18.51627 -42.23947 30035 ft 405 kts 219°
2026-04-20 15:49 -18.56000 -42.27718 30036 ft 405 kts 219°
2026-04-20 15:50 -18.60348 -42.31458 30038 ft 405 kts 219°
2026-04-20 15:50 -18.64743 -42.35245 30048 ft 405 kts 219°
2026-04-20 15:51 -18.69070 -42.38993 30049 ft 405 kts 219°
2026-04-20 15:51 -18.73431 -42.42773 30051 ft 405 kts 219°
2026-04-20 15:52 -18.77329 -42.47035 30049 ft 405 kts 233°
2026-04-20 15:52 -18.80631 -42.51875 30054 ft 405 kts 233°
2026-04-20 15:53 -18.85564 -42.59089 30056 ft 405 kts 233°
2026-04-20 15:53 -18.88860 -42.63915 30061 ft 406 kts 233°
2026-04-20 15:54 -18.92164 -42.68764 30052 ft 406 kts 233°
2026-04-20 15:54 -18.95456 -42.73597 30049 ft 404 kts 233°
2026-04-20 15:55 -18.98747 -42.78421 30051 ft 404 kts 233°
2026-04-20 15:55 -19.02038 -42.83249 30052 ft 405 kts 233°
2026-04-20 15:56 -19.05308 -42.88062 30053 ft 405 kts 233°
2026-04-20 15:56 -19.08589 -42.92895 30054 ft 404 kts 233°
2026-04-20 15:57 -19.11877 -42.97729 30050 ft 404 kts 233°
2026-04-20 15:57 -19.15164 -43.02567 30056 ft 405 kts 233°
2026-04-20 15:58 -19.18426 -43.07388 30058 ft 405 kts 233°
2026-04-20 15:58 -19.21699 -43.12232 30061 ft 404 kts 233°
2026-04-20 15:59 -19.24980 -43.17081 30060 ft 404 kts 233°
2026-04-20 15:59 -19.28259 -43.21918 30063 ft 405 kts 233°
2026-04-20 16:00 -19.31523 -43.26742 30069 ft 405 kts 233°
2026-04-20 16:00 -19.34797 -43.31592 30072 ft 405 kts 233°
2026-04-20 16:01 -19.38066 -43.36441 30077 ft 404 kts 232°
2026-04-20 16:01 -19.41337 -43.41291 30079 ft 404 kts 233°
2026-04-20 16:02 -19.44606 -43.46150 30079 ft 404 kts 232°
2026-04-20 16:02 -19.47869 -43.51002 30084 ft 404 kts 232°
2026-04-20 16:03 -19.51118 -43.55831 30088 ft 404 kts 232°
2026-04-20 16:03 -19.54389 -43.60685 30086 ft 405 kts 232°
2026-04-20 16:04 -19.57660 -43.65551 30093 ft 405 kts 232°
2026-04-20 16:04 -19.60929 -43.70422 30096 ft 405 kts 232°
2026-04-20 16:05 -19.64196 -43.75294 30096 ft 405 kts 232°
2026-04-20 16:05 -19.67445 -43.80149 30102 ft 405 kts 232°
2026-04-20 16:06 -19.70713 -43.85035 30094 ft 406 kts 232°
2026-04-20 16:06 -19.73977 -43.89917 30102 ft 405 kts 232°
2026-04-20 16:07 -19.76685 -43.93970 30113 ft 405 kts 232°
2026-04-20 16:07 -19.79947 -43.98855 30107 ft 405 kts 232°
2026-04-20 16:08 -19.83734 -44.04531 30101 ft 405 kts 232°
2026-04-20 16:08 -19.86461 -44.08622 30096 ft 405 kts 232°
2026-04-20 16:09 -19.89694 -44.13477 30102 ft 405 kts 232°
2026-04-20 16:09 -19.92949 -44.18364 30106 ft 405 kts 232°
2026-04-20 16:10 -19.96207 -44.23256 30111 ft 405 kts 232°
2026-04-20 16:10 -19.99462 -44.28159 30117 ft 405 kts 232°
2026-04-20 16:11 -20.02714 -44.33053 30112 ft 405 kts 232°
2026-04-20 16:11 -20.05967 -44.37955 30116 ft 405 kts 232°
2026-04-20 16:12 -20.09196 -44.42827 30107 ft 405 kts 232°
2026-04-20 16:12 -20.12447 -44.47727 30095 ft 404 kts 230°
2026-04-20 16:13 -20.16488 -44.51776 30098 ft 399 kts 214°
2026-04-20 16:13 -20.20978 -44.55248 30099 ft 399 kts 214°
2026-04-20 16:14 -20.25443 -44.58724 30103 ft 400 kts 214°
2026-04-20 16:14 -20.29929 -44.62232 30112 ft 400 kts 214°
2026-04-20 16:15 -20.34436 -44.65745 30114 ft 407 kts 214°
2026-04-20 16:15 -20.39105 -44.69375 30336 ft 421 kts 214°
2026-04-20 16:16 -20.41494 -44.71235 30467 ft 427 kts 214°
2026-04-20 16:16 -20.43905 -44.73117 30591 ft 432 kts 214°
2026-04-20 16:16 -20.46344 -44.75023 30716 ft 437 kts 214°
2026-04-20 16:16 -20.48807 -44.76948 30843 ft 441 kts 214°
2026-04-20 16:17 -20.51291 -44.78890 30967 ft 444 kts 214°
2026-04-20 16:17 -20.53791 -44.80847 31093 ft 447 kts 214°
2026-04-20 16:17 -20.56305 -44.82815 31218 ft 449 kts 214°
2026-04-20 16:17 -20.58830 -44.84790 31342 ft 450 kts 214°
2026-04-20 16:18 -20.61330 -44.86744 31468 ft 451 kts 214°
2026-04-20 16:18 -20.63867 -44.88726 31626 ft 451 kts 214°
2026-04-20 16:18 -20.66399 -44.90705 31815 ft 450 kts 214°
2026-04-20 16:18 -20.68927 -44.92680 31999 ft 450 kts 214°
2026-04-20 16:19 -20.71457 -44.94659 32175 ft 449 kts 215°
2026-04-20 16:19 -20.73987 -44.96643 32347 ft 449 kts 215°
2026-04-20 16:19 -20.76500 -44.98615 32532 ft 448 kts 215°
2026-04-20 16:19 -20.79012 -45.00587 32718 ft 447 kts 215°
2026-04-20 16:20 -20.81518 -45.02554 32911 ft 447 kts 215°
2026-04-20 16:20 -20.84023 -45.04527 33078 ft 446 kts 215°
2026-04-20 16:20 -20.86523 -45.06494 33245 ft 445 kts 215°
2026-04-20 16:20 -20.88987 -45.08432 33387 ft 446 kts 215°
2026-04-20 16:21 -20.91482 -45.10399 33554 ft 445 kts 215°
2026-04-20 16:21 -20.93979 -45.12369 33728 ft 444 kts 216°
2026-04-20 16:21 -20.96465 -45.14334 33908 ft 444 kts 216°
2026-04-20 16:21 -20.98949 -45.16295 34081 ft 443 kts 216°
2026-04-20 16:22 -21.01429 -45.18252 34257 ft 443 kts 216°
2026-04-20 16:22 -21.03904 -45.20205 34445 ft 441 kts 216°
2026-04-20 16:22 -21.06374 -45.22153 34635 ft 441 kts 216°
2026-04-20 16:22 -21.08842 -45.24094 34832 ft 440 kts 216°
2026-04-20 16:23 -21.11305 -45.26029 35024 ft 439 kts 216°
2026-04-20 16:23 -21.13762 -45.27970 35193 ft 438 kts 216°
2026-04-20 16:23 -21.16221 -45.29915 35375 ft 437 kts 216°
2026-04-20 16:23 -21.18630 -45.31824 35534 ft 436 kts 216°
2026-04-20 16:24 -21.21066 -45.33757 35694 ft 435 kts 216°
2026-04-20 16:24 -21.23503 -45.35688 35844 ft 434 kts 216°
2026-04-20 16:24 -21.25931 -45.37607 36023 ft 433 kts 216°
2026-04-20 16:24 -21.28360 -45.39526 36109 ft 433 kts 216°
2026-04-20 16:25 -21.33200 -45.43354 36147 ft 432 kts 216°
2026-04-20 16:25 -21.38007 -45.47168 36142 ft 432 kts 216°
2026-04-20 16:26 -21.42842 -45.51019 36130 ft 432 kts 216°
2026-04-20 16:26 -21.47676 -45.54865 36137 ft 432 kts 216°
2026-04-20 16:27 -21.52524 -45.58698 36146 ft 433 kts 216°
2026-04-20 16:27 -21.57391 -45.62508 36146 ft 433 kts 216°
2026-04-20 16:28 -21.62263 -45.66329 36135 ft 433 kts 216°
2026-04-20 16:28 -21.67117 -45.70153 36137 ft 433 kts 216°
2026-04-20 16:29 -21.71981 -45.73974 36135 ft 433 kts 216°
2026-04-20 16:29 -21.76844 -45.77794 36126 ft 433 kts 216°
2026-04-20 16:30 -21.81711 -45.81629 36131 ft 433 kts 216°
2026-04-20 16:30 -21.86569 -45.85464 36131 ft 434 kts 216°
2026-04-20 16:31 -21.91436 -45.89308 36126 ft 434 kts 216°
2026-04-20 16:31 -21.96311 -45.93166 36131 ft 435 kts 216°
2026-04-20 16:32 -21.98717 -45.95069 35746 ft 435 kts 216°
2026-04-20 16:32 -22.01165 -45.97005 34806 ft 437 kts 216°
2026-04-20 16:32 -22.03621 -45.98949 33992 ft 437 kts 216°
2026-04-20 16:32 -22.06079 -46.00897 33024 ft 440 kts 215°
2026-04-20 16:33 -22.08553 -46.02861 32063 ft 443 kts 215°
2026-04-20 16:33 -22.11041 -46.04834 31107 ft 445 kts 214°
2026-04-20 16:33 -22.13548 -46.06819 30034 ft 449 kts 214°
2026-04-20 16:33 -22.16079 -46.08826 28916 ft 453 kts 214°
2026-04-20 16:34 -22.18626 -46.10847 27801 ft 455 kts 214°
2026-04-20 16:34 -22.21186 -46.12879 26584 ft 458 kts 214°
2026-04-20 16:34 -22.23758 -46.14924 25355 ft 460 kts 214°
2026-04-20 16:34 -22.26340 -46.16976 24135 ft 461 kts 215°
2026-04-20 16:35 -22.28947 -46.18992 23045 ft 459 kts 211°
2026-04-20 16:35 -22.31747 -46.20586 22211 ft 451 kts 202°
2026-04-20 16:35 -22.34710 -46.21645 21636 ft 447 kts 193°
2026-04-20 16:35 -22.37735 -46.22227 21095 ft 446 kts 188°
2026-04-20 16:36 -22.40795 -46.22710 20569 ft 443 kts 188°
2026-04-20 16:36 -22.43836 -46.23191 20014 ft 440 kts 188°
2026-04-20 16:36 -22.46864 -46.23669 19491 ft 437 kts 188°
2026-04-20 16:36 -22.49856 -46.24136 18942 ft 434 kts 188°
2026-04-20 16:37 -22.52837 -46.24599 18414 ft 431 kts 188°
2026-04-20 16:37 -22.55797 -46.25058 17949 ft 428 kts 188°
2026-04-20 16:37 -22.58744 -46.25513 17794 ft 428 kts 188°
2026-04-20 16:37 -22.61686 -46.25967 17531 ft 426 kts 188°
2026-04-20 16:38 -22.64619 -46.26419 17282 ft 425 kts 188°
2026-04-20 16:38 -22.67548 -46.26871 17040 ft 423 kts 188°
2026-04-20 16:38 -22.70460 -46.27321 16812 ft 422 kts 188°
2026-04-20 16:38 -22.73368 -46.27772 16547 ft 420 kts 188°
2026-04-20 16:39 -22.76252 -46.28260 16307 ft 419 kts 192°
2026-04-20 16:39 -22.79035 -46.29182 16040 ft 418 kts 201°
2026-04-20 16:39 -22.81648 -46.30581 15152 ft 420 kts 209°
2026-04-20 16:39 -22.84138 -46.32138 14403 ft 417 kts 209°
2026-04-20 16:40 -22.86638 -46.33704 13747 ft 412 kts 209°
2026-04-20 16:40 -22.89114 -46.35251 12973 ft 409 kts 209°
2026-04-20 16:40 -22.91574 -46.36779 12219 ft 405 kts 209°
2026-04-20 16:40 -22.94013 -46.38290 11499 ft 401 kts 209°
2026-04-20 16:41 -22.96389 -46.39763 11294 ft 385 kts 209°
2026-04-20 16:41 -22.98667 -46.41176 11164 ft 367 kts 209°
2026-04-20 16:41 -23.00833 -46.42520 11060 ft 350 kts 209°
2026-04-20 16:41 -23.02900 -46.43803 10939 ft 336 kts 208°
2026-04-20 16:42 -23.04894 -46.45041 10813 ft 323 kts 209°
2026-04-20 16:42 -23.06784 -46.46219 10656 ft 302 kts 209°
2026-04-20 16:42 -23.08546 -46.47318 10244 ft 291 kts 209°
2026-04-20 16:42 -23.10310 -46.48415 10048 ft 288 kts 209°
2026-04-20 16:43 -23.12051 -46.49500 9923 ft 288 kts 209°
2026-04-20 16:43 -23.13797 -46.50586 9807 ft 289 kts 210°
2026-04-20 16:43 -23.15516 -46.51655 9682 ft 289 kts 209°
2026-04-20 16:43 -23.17260 -46.52740 9560 ft 289 kts 210°
2026-04-20 16:44 -23.19009 -46.53828 9422 ft 289 kts 209°
2026-04-20 16:44 -23.20757 -46.54915 9167 ft 288 kts 210°
2026-04-20 16:44 -23.22467 -46.56043 8883 ft 288 kts 212°
2026-04-20 16:44 -23.24146 -46.57226 8566 ft 287 kts 213°
2026-04-20 16:45 -23.25802 -46.58423 8277 ft 285 kts 213°
2026-04-20 16:45 -23.27446 -46.59615 8020 ft 283 kts 214°
2026-04-20 16:45 -23.29082 -46.60797 7829 ft 281 kts 213°
2026-04-20 16:45 -23.30713 -46.61967 7624 ft 280 kts 213°
2026-04-20 16:46 -23.32343 -46.63132 7415 ft 279 kts 213°
2026-04-20 16:46 -23.33969 -46.64290 7209 ft 278 kts 213°
2026-04-20 16:46 -23.35562 -46.65426 7011 ft 277 kts 213°
2026-04-20 16:46 -23.37168 -46.66570 6800 ft 270 kts 213°
2026-04-20 16:47 -23.38686 -46.67651 6603 ft 249 kts 213°
2026-04-20 16:47 -23.40088 -46.68645 6423 ft 236 kts 212°
2026-04-20 16:47 -23.41591 -46.69294 6262 ft 233 kts 184°
2026-04-20 16:47 -23.43175 -46.69005 6067 ft 235 kts 153°
2026-04-20 16:48 -23.44377 -46.67861 5791 ft 227 kts 126°
2026-04-20 16:48 -23.45248 -46.66463 5452 ft 220 kts 125°
2026-04-20 16:48 -23.46093 -46.65102 5187 ft 214 kts 125°
2026-04-20 16:48 -23.46890 -46.63785 4969 ft 210 kts 118°
2026-04-20 16:49 -23.47296 -46.62276 4801 ft 207 kts 93°
2026-04-20 16:49 -23.47128 -46.60737 4716 ft 199 kts 75°
2026-04-20 16:49 -23.46748 -46.59327 4448 ft 189 kts 75°
2026-04-20 16:49 -23.46383 -46.57994 4191 ft 178 kts 75°
2026-04-20 16:50 -23.46047 -46.56752 3961 ft 165 kts 75°
2026-04-20 16:50 -23.45730 -46.55574 3770 ft 160 kts 76°
2026-04-20 16:50 -23.45522 -46.54803 3620 ft 159 kts 75°
2026-04-20 16:50 -23.45107 -46.53260 3343 ft 158 kts 74°
2026-04-20 16:51 -23.44902 -46.52500 3206 ft 157 kts 74°
2026-04-20 16:51 -23.44493 -46.50980 2928 ft 156 kts 74°
2026-04-20 16:51 -23.44191 -46.49860 2728 ft 156 kts 74°
2026-04-20 16:51 -23.43885 -46.48728 2516 ft 155 kts 74°
2026-04-20 16:52 -23.43690 -46.47996 2461 ft 144 kts 74°
2026-04-20 16:52 -23.43502 -46.47308 2466 ft 39 kts 73°
2026-04-20 16:52 -23.43433 -46.47064 2462 ft 32 kts 67°
2026-04-20 16:52 -23.43314 -46.46881 2467 ft 28 kts 45°
2026-04-20 16:53 -23.43180 -46.46748 2462 ft 24 kts 39°
2026-04-20 16:53 -23.43033 -46.46738 2463 ft 20 kts 344°
2026-04-20 16:53 -23.42905 -46.46779 2467 ft 18 kts 344°
2026-04-20 16:53 -23.42792 -46.46811 2467 ft 15 kts
2026-04-20 16:54 -23.42700 -46.46780 2464 ft 13 kts 351°
2026-04-20 16:54 -23.42624 -46.46811 2461 ft 11 kts 341°
2026-04-20 16:54 -23.42603 -46.46864 2462 ft 8 kts 255°
2026-04-20 16:54 -23.42617 -46.46916 2461 ft 6 kts 253°
2026-04-20 16:55 -23.42617 -46.46917 2461 ft 0 kts 253°